FW2089 Dover MA US current weather conditions

sailwx.info

Wind from 095

Air temperature 27.8° C
Dewpoint 25.2° C

Last reported at 2020-Jul-10 19:09 UTC.
Time now 2020-Jul-10 19:58 UTC

Location: N 42°15' W 071°17'.
View on Google Maps.

See reports from other nearby stations

  
Tides and Currents Weather Stations Pressure Air Temp Water Temp Dewpoint Dewpoint Depression Visibility Wind Speed Wind Dir Waves Ship Positions
date/time (UTC)wind fromknots sea level pressurealtimeterstation pressurevisibilityair tempwater tempwave heightnotes
2020-Jul-10 19:09 095 27.8
2020-Jul-10 19:04 097 0 gusting 3 27.8
2020-Jul-10 18:59 097 0 gusting 3 27.8
2020-Jul-10 18:54 257 0 gusting 2 27.8
2020-Jul-10 18:49 130 0 gusting 2 27.8
2020-Jul-10 18:44 107 28.3
2020-Jul-10 18:39 107 27.8
2020-Jul-10 18:34 107 27.8
2020-Jul-10 18:29 107 27.8
2020-Jul-10 18:24 352 27.8
2020-Jul-10 18:19 326 27.8
2020-Jul-10 18:14 326 28.3
2020-Jul-10 18:09 326 28.3
2020-Jul-10 18:04 326 28.3
2020-Jul-10 17:59 326 28.3
2020-Jul-10 17:54 326 0 gusting 2 28.3
2020-Jul-10 17:49 326 0 gusting 5 28.9
2020-Jul-10 17:44 109 0 gusting 5 28.9
2020-Jul-10 17:39 110 0 gusting 3 28.9
2020-Jul-10 17:33 107 0 gusting 4 28.9
2020-Jul-10 17:28 120 0 gusting 4 28.9
2020-Jul-10 17:23 205 0 gusting 5 28.9
2020-Jul-10 17:18 107 1 gusting 6 28.9
2020-Jul-10 17:13 091 0 gusting 6 28.9
2020-Jul-10 17:08 097 0 gusting 1 28.9
2020-Jul-10 17:03 097 0 gusting 2 28.9
2020-Jul-10 16:58 097 1 gusting 3 28.9
2020-Jul-10 16:53 099 1 gusting 5 29.4
2020-Jul-10 16:48 093 1 gusting 5 29.4
2020-Jul-10 16:43 359 0 gusting 3 29.4
2020-Jul-10 16:38 051 0 gusting 3 29.4
2020-Jul-10 16:33 110 0 gusting 5 29.4
2020-Jul-10 16:28 099 1 gusting 5 29.4
2020-Jul-10 16:23 092 1 gusting 5 29.4
2020-Jul-10 16:18 091 1 gusting 5 29.4
2020-Jul-10 16:13 114 0 gusting 6 29.4
2020-Jul-10 16:08 328 0 gusting 6 29.4
2020-Jul-10 16:03 204 0 gusting 2 29.4
2020-Jul-10 15:58 226 0 gusting 2 28.9
2020-Jul-10 15:53 226 0 gusting 2 28.9
2020-Jul-10 15:48 117 0 gusting 3 28.9
2020-Jul-10 15:43 117 0 gusting 3 28.9
2020-Jul-10 15:38 105 0 gusting 2 28.9
2020-Jul-10 15:33 047 0 gusting 1 28.9
2020-Jul-10 15:28 077 0 gusting 2 28.9
2020-Jul-10 15:23 071 0 gusting 2 28.3
2020-Jul-10 15:18 067 1 gusting 5 28.3
2020-Jul-10 15:13 104 1 gusting 5 28.3
2020-Jul-10 15:08 125 0 gusting 3 28.3
2020-Jul-10 15:03 043 1 gusting 3 28.3
2020-Jul-10 14:58 248 0 gusting 5 28.3
2020-Jul-10 14:53 107 0 gusting 5 28.3
2020-Jul-10 14:48 170 0 gusting 3 27.8
2020-Jul-10 14:43 116 0 gusting 2 27.8
2020-Jul-10 14:38 255 0 gusting 2 27.2
2020-Jul-10 14:33 116 0 gusting 2 27.2
2020-Jul-10 14:28 120 0 gusting 2 26.7
2020-Jul-10 14:23 120 0 gusting 3 26.7
2020-Jul-10 14:18 107 0 gusting 5 26.7
2020-Jul-10 14:13 101 0 gusting 5 26.1
2020-Jul-10 14:08 136 0 gusting 3 26.1
2020-Jul-10 14:03 097 0 gusting 1 26.1
2020-Jul-10 13:58 097 0 gusting 1 26.1
2020-Jul-10 13:53 051 26.1
2020-Jul-10 13:48 101 0 gusting 1 25.6
2020-Jul-10 13:42 098 0 gusting 1 25.6
2020-Jul-10 13:37 098 0 gusting 3 25.6
2020-Jul-10 13:32 098 0 gusting 3 25.6
2020-Jul-10 13:27 073 0 gusting 3 25.6
2020-Jul-10 13:22 071 0 gusting 3 25.0
2020-Jul-10 13:17 128 0 gusting 3 25.0
2020-Jul-10 13:12 092 0 gusting 3 24.4
2020-Jul-10 13:07 134 0 gusting 3 24.4
2020-Jul-10 13:02 134 0 gusting 3 24.4
2020-Jul-10 12:57 088 0 gusting 2 23.9
2020-Jul-10 12:52 083 0 gusting 2 23.9
2020-Jul-10 12:47 090 0 gusting 2 23.9
2020-Jul-10 12:42 090 0 gusting 1 23.9
2020-Jul-10 12:37 090 0 gusting 1 23.3
2020-Jul-10 12:32 090 23.3
2020-Jul-10 12:27 090 23.3
2020-Jul-10 12:22 090 23.3
2020-Jul-10 12:17 090 23.3
2020-Jul-10 12:12 090 23.3
2020-Jul-10 12:07 090 0 gusting 2 23.3
2020-Jul-10 12:02 049 0 gusting 1 23.3
2020-Jul-10 11:57 084 0 gusting 2 23.3
2020-Jul-10 11:52 086 0 gusting 2 22.8
2020-Jul-10 11:47 082 22.8
2020-Jul-10 11:42 082 22.8
2020-Jul-10 11:37 082 22.8
2020-Jul-10 11:32 082 22.8
2020-Jul-10 11:27 082 22.8
2020-Jul-10 11:22 082 22.8
2020-Jul-10 11:17 082 22.8
2020-Jul-10 11:12 082 22.2
2020-Jul-10 11:07 082 22.2
2020-Jul-10 11:02 082 22.2
2020-Jul-10 10:57 082 22.2
2020-Jul-10 10:52 082 22.2
2020-Jul-10 10:47 082 22.2
2020-Jul-10 10:42 082 22.2
2020-Jul-10 10:37 082 22.2
2020-Jul-10 10:32 345 22.2
2020-Jul-10 10:27 345 22.2
2020-Jul-10 10:22 345 22.2
2020-Jul-10 10:17 345 22.2
2020-Jul-10 10:12 345 22.2
2020-Jul-10 10:07 345 22.2
2020-Jul-10 10:02 345 22.2
2020-Jul-10 09:57 345 22.2
2020-Jul-10 09:52 345 21.7
2020-Jul-10 09:47 345 21.7
2020-Jul-10 09:42 345 21.7
2020-Jul-10 09:37 345 21.7
2020-Jul-10 09:32 345 21.7
2020-Jul-10 09:27 345 21.7
2020-Jul-10 09:22 345 21.7
2020-Jul-10 09:17 345 21.7
2020-Jul-10 09:12 345 21.7
2020-Jul-10 09:07 345 21.7
2020-Jul-10 09:02 345 21.7
2020-Jul-10 08:57 345 21.7
2020-Jul-10 08:52 345 21.7
2020-Jul-10 08:47 345 21.7
2020-Jul-10 08:42 345 21.7
2020-Jul-10 08:37 344 21.7
2020-Jul-10 08:32 344 21.7
2020-Jul-10 08:27 057 21.7
2020-Jul-10 08:22 057 21.7
2020-Jul-10 08:17 057 21.7
2020-Jul-10 08:12 057 21.7
2020-Jul-10 08:07 057 21.1
2020-Jul-10 08:01 057 21.1
2020-Jul-10 07:56 057 21.1
2020-Jul-10 07:51 057 21.1
2020-Jul-10 07:46 057 21.1
2020-Jul-10 07:41 057 21.1
2020-Jul-10 07:36 057 21.1
2020-Jul-10 07:31 057 21.1
2020-Jul-10 07:26 057 21.1
2020-Jul-10 07:21 057 21.1
2020-Jul-10 07:16 057 21.1
2020-Jul-10 07:11 057 21.1
2020-Jul-10 07:06 057 21.1
2020-Jul-10 07:01 057 21.1
2020-Jul-10 06:56 057 21.1
2020-Jul-10 06:51 057 21.1
2020-Jul-10 06:46 057 21.1
2020-Jul-10 06:41 057 21.7
2020-Jul-10 06:36 057 21.7
2020-Jul-10 06:31 057 21.7
2020-Jul-10 06:26 057 21.7
2020-Jul-10 06:21 057 21.7
2020-Jul-10 06:16 057 21.7
2020-Jul-10 06:11 057 21.7
2020-Jul-10 06:08 057 21.7
2020-Jul-10 06:01 057 21.7
2020-Jul-10 05:56 057 21.7
2020-Jul-10 05:51 057 21.7
2020-Jul-10 05:46 057 21.7
2020-Jul-10 05:41 034 21.7
2020-Jul-10 05:36 034 21.7
2020-Jul-10 05:31 034 21.7
2020-Jul-10 05:26 034 21.7
2020-Jul-10 05:21 034 21.7
2020-Jul-10 05:16 034 21.7
2020-Jul-10 05:11 034 21.7
2020-Jul-10 05:06 034 21.7
2020-Jul-10 05:01 034 21.7
2020-Jul-10 04:56 034 22.2
2020-Jul-10 04:51 034 22.2
2020-Jul-10 04:46 034 22.2
2020-Jul-10 04:40 034 22.2
2020-Jul-10 04:35 034 22.2
2020-Jul-10 04:30 034 22.2
2020-Jul-10 04:25 034 22.2
2020-Jul-10 04:20 034 22.2
2020-Jul-10 04:15 034 22.2
2020-Jul-10 04:10 034 22.8
2020-Jul-10 04:05 034 22.8
2020-Jul-10 04:00 034 22.8
2020-Jul-10 03:55 034 22.8
2020-Jul-10 03:50 034 22.8
2020-Jul-10 03:45 034 22.8
2020-Jul-10 03:40 034 22.8
2020-Jul-10 03:35 034 22.8
2020-Jul-10 03:30 034 23.3
2020-Jul-10 03:25 034 23.3
2020-Jul-10 03:20 034 23.3
2020-Jul-10 03:15 034 23.3
2020-Jul-10 03:10 034 23.3
2020-Jul-10 03:05 034 23.3
2020-Jul-10 03:00 034 23.3
2020-Jul-10 02:55 034 23.9
2020-Jul-10 02:50 034 23.9
2020-Jul-10 02:45 034 23.9
2020-Jul-10 02:40 034 23.9
2020-Jul-10 02:35 034 23.9
2020-Jul-10 02:30 034 23.9
2020-Jul-10 02:25 034 24.4
2020-Jul-10 02:20 034 24.4
2020-Jul-10 02:15 034 24.4
2020-Jul-10 02:10 034 24.4
2020-Jul-10 02:05 034 24.4
2020-Jul-10 02:00 034 24.4
2020-Jul-10 01:55 034 24.4
2020-Jul-10 01:50 034 25.0
2020-Jul-10 01:40 034 25.0
2020-Jul-10 01:35 034 25.0
2020-Jul-10 01:30 034 25.0
2020-Jul-10 01:25 064 25.6
2020-Jul-10 01:20 064 25.6
2020-Jul-10 01:15 064 25.6
2020-Jul-10 01:10 064 25.6
2020-Jul-10 01:05 246 25.6
2020-Jul-10 01:00 075 26.1
2020-Jul-10 00:55 218 26.1
2020-Jul-10 00:50 258 26.1
2020-Jul-10 00:44 258 26.7
2020-Jul-10 00:39 258 26.7
2020-Jul-10 00:34 258 26.7
2020-Jul-10 00:29 258 26.7
2020-Jul-10 00:24 259 27.2
2020-Jul-10 00:19 259 27.2
2020-Jul-10 00:14 258 27.2
2020-Jul-10 00:09 256 27.8
2020-Jul-10 00:04 257 27.8
2020-Jul-09 23:59 257 0 gusting 1 27.8
2020-Jul-09 23:54 116 28.3
2020-Jul-09 23:49 116 28.3
2020-Jul-09 23:44 116 0 gusting 1 28.9
2020-Jul-09 23:39 003 0 gusting 1 29.4
2020-Jul-09 23:34 003 29.4
2020-Jul-09 23:29 260 29.4
2020-Jul-09 23:24 342 30.0
2020-Jul-09 23:19 342 30.0
2020-Jul-09 23:14 342 30.0
2020-Jul-09 23:09 209 0 gusting 2 30.0
2020-Jul-09 23:04 039 0 gusting 3 30.6
2020-Jul-09 22:59 335 0 gusting 3 30.6
2020-Jul-09 22:54 041 0 gusting 1 30.6
2020-Jul-09 22:49 041 0 gusting 1 30.6
2020-Jul-09 22:44 099 30.6
2020-Jul-09 22:39 099 0 gusting 3 30.6
2020-Jul-09 22:34 110 0 gusting 3 30.6
2020-Jul-09 22:29 353 0 gusting 3 30.6
2020-Jul-09 22:24 001 0 gusting 3 30.6
2020-Jul-09 22:19 110 0 gusting 3 30.6
2020-Jul-09 22:14 053 0 gusting 3 30.6
2020-Jul-09 22:09 066 0 gusting 3 30.6
2020-Jul-09 22:04 069 0 gusting 2 30.6
2020-Jul-09 21:59 277 0 gusting 3 30.6
2020-Jul-09 21:54 005 0 gusting 3 31.1
2020-Jul-09 21:49 085 0 gusting 2 31.1
2020-Jul-09 21:44 023 0 gusting 2 31.1
2020-Jul-09 21:39 136 0 gusting 4 31.1
2020-Jul-09 21:34 136 0 gusting 4 31.1
2020-Jul-09 21:29 301 0 gusting 4 31.7
2020-Jul-09 21:24 322 0 gusting 4 31.7
2020-Jul-09 21:19 009 0 gusting 4 31.7
2020-Jul-09 21:14 359 0 gusting 4 32.2
2020-Jul-09 21:09 116 0 gusting 3 32.2
2020-Jul-09 21:04 020 0 gusting 3 32.2
2020-Jul-09 20:59 143 0 gusting 3 32.8
2020-Jul-09 20:54 302 0 gusting 2 32.8
2020-Jul-09 20:49 132 32.8
2020-Jul-09 20:44 103 0 gusting 1 33.3
2020-Jul-09 20:39 103 0 gusting 2 33.3
2020-Jul-09 20:34 103 0 gusting 2 33.3
2020-Jul-09 20:29 082 0 gusting 2 33.9
2020-Jul-09 20:24 074 0 gusting 3 33.9
2020-Jul-09 20:18 328 0 gusting 3 34.4
2020-Jul-09 20:13 201 0 gusting 2 34.4
2020-Jul-09 20:08 202 0 gusting 2 34.4
2020-Jul-09 20:03 106 34.4
2020-Jul-09 19:58 106 34.4
2020-Jul-09 19:53 106 0 gusting 2 34.4
2020-Jul-09 19:48 106 0 gusting 2 34.4
2020-Jul-09 19:43 108 0 gusting 2 34.4
2020-Jul-09 19:38 108 0 gusting 2 34.4
2020-Jul-09 19:33 229 0 gusting 2 34.4
2020-Jul-09 19:28 081 34.4
2020-Jul-09 19:23 082 33.9
2020-Jul-09 19:18 082 0 gusting 2 33.9
2020-Jul-09 19:13 310 0 gusting 2 33.9
2020-Jul-09 19:08 207 0 gusting 1 33.9
2020-Jul-09 19:03 051 0 gusting 1 33.9
2020-Jul-09 18:58 039 0 gusting 2 33.9
2020-Jul-09 18:53 122 0 gusting 3 33.3
2020-Jul-09 18:48 005 0 gusting 3 33.3
2020-Jul-09 18:43 134 0 gusting 3 33.3
2020-Jul-09 18:38 134 0 gusting 3 33.3
2020-Jul-09 18:33 073 0 gusting 2 33.3
2020-Jul-09 18:28 092 0 gusting 3 33.3
2020-Jul-09 18:23 043 0 gusting 3 33.3
2020-Jul-09 18:18 091 0 gusting 2 33.3
2020-Jul-09 18:13 261 0 gusting 1 33.3
2020-Jul-09 18:08 261 0 gusting 1 33.3
2020-Jul-09 18:03 261 0 gusting 2 33.3
2020-Jul-09 17:58 219 0 gusting 2 33.3
2020-Jul-09 17:53 074 0 gusting 2 33.9
2020-Jul-09 17:48 040 0 gusting 2 33.9
2020-Jul-09 17:43 064 0 gusting 2 33.9
2020-Jul-09 17:38 222 0 gusting 2 33.3
2020-Jul-09 17:33 142 0 gusting 2 33.3
2020-Jul-09 17:28 195 0 gusting 3 33.3
2020-Jul-09 17:23 097 0 gusting 3 33.3
2020-Jul-09 17:18 333 1 gusting 3 32.8
2020-Jul-09 17:13 276 0 gusting 1 32.8
2020-Jul-09 17:08 340 0 gusting 2 32.8
2020-Jul-09 17:03 136 0 gusting 2 32.2
2020-Jul-09 16:58 041 0 gusting 2 32.2
2020-Jul-09 16:53 040 0 gusting 2 32.2
2020-Jul-09 16:48 057 0 gusting 2 32.2
2020-Jul-09 16:43 027 0 gusting 1 31.7
2020-Jul-09 16:38 028 0 gusting 1 32.2
2020-Jul-09 16:33 007 31.7
2020-Jul-09 16:28 354 31.7
2020-Jul-09 16:23 354 0 gusting 3 32.2
2020-Jul-09 16:18 354 0 gusting 3 32.2
2020-Jul-09 16:13 297 0 gusting 2 32.2
2020-Jul-09 16:08 295 0 gusting 2 32.2
2020-Jul-09 16:03 124 0 gusting 3 32.2
2020-Jul-09 15:58 327 0 gusting 3 32.2
2020-Jul-09 15:53 157 0 gusting 1 32.2
2020-Jul-09 15:48 157 0 gusting 1 32.2
2020-Jul-09 15:43 157 0 gusting 2 31.7
2020-Jul-09 15:38 159 0 gusting 2 31.7
2020-Jul-09 15:33 153 0 gusting 2 31.1
2020-Jul-09 15:28 068 0 gusting 1 31.1
2020-Jul-09 15:23 076 0 gusting 1 31.1
2020-Jul-09 15:18 072 0 gusting 3 30.6
2020-Jul-09 15:13 072 1 gusting 3 30.6
2020-Jul-09 15:08 022 0 gusting 2 30.6
2020-Jul-09 15:03 023 0 gusting 2 30.0
2020-Jul-09 14:58 103 0 gusting 3 30.0
2020-Jul-09 14:53 116 0 gusting 3 30.0
2020-Jul-09 14:48 071 0 gusting 2 29.4
2020-Jul-09 14:43 009 0 gusting 2 29.4
2020-Jul-09 14:38 008 0 gusting 1 29.4
2020-Jul-09 14:33 008 0 gusting 1 29.4
2020-Jul-09 14:27 008 0 gusting 1 29.4
2020-Jul-09 14:22 008 0 gusting 1 28.9
2020-Jul-09 14:17 008 0 gusting 2 28.9
2020-Jul-09 14:12 007 28.9
2020-Jul-09 14:07 007 0 gusting 2 28.3
2020-Jul-09 14:02 006 0 gusting 2 28.3
2020-Jul-09 13:57 348 0 gusting 2 27.8
2020-Jul-09 13:52 098 27.8
2020-Jul-09 13:47 220 27.2
2020-Jul-09 13:42 220 0 gusting 2 27.2
2020-Jul-09 13:37 220 0 gusting 2 26.7
2020-Jul-09 13:32 343 26.7
2020-Jul-09 13:27 343 0 gusting 3 26.7
2020-Jul-09 13:22 343 0 gusting 3 26.7
2020-Jul-09 13:17 064 0 gusting 3 26.1
2020-Jul-09 13:12 353 0 gusting 3 26.1
2020-Jul-09 13:07 020 0 gusting 4 26.1
2020-Jul-09 13:02 020 0 gusting 4 26.1
2020-Jul-09 12:57 185 0 gusting 3 25.6
2020-Jul-09 12:52 017 0 gusting 4 25.6
2020-Jul-09 12:47 006 0 gusting 4 25.6
2020-Jul-09 12:42 157 25.0
2020-Jul-09 12:37 157 25.0
2020-Jul-09 12:32 157 24.4
2020-Jul-09 12:27 157 24.4
2020-Jul-09 12:22 157 24.4
2020-Jul-09 12:17 157 24.4
2020-Jul-09 12:12 207 23.9
2020-Jul-09 12:07 311 23.9
2020-Jul-09 12:02 325 23.9
2020-Jul-09 11:57 325 23.3
2020-Jul-09 11:52 013 23.3
2020-Jul-09 11:47 083 23.3
2020-Jul-09 11:42 083 23.3
2020-Jul-09 11:37 083 23.3
2020-Jul-09 11:32 083 22.8
2020-Jul-09 11:27 057 22.8
2020-Jul-09 11:22 057 22.8
2020-Jul-09 11:17 057 22.8
2020-Jul-09 11:12 057 22.8
2020-Jul-09 11:07 057 22.8
2020-Jul-09 11:02 057 22.2
2020-Jul-09 10:57 057 22.2
2020-Jul-09 10:52 185 22.2
2020-Jul-09 10:47 185 22.2
2020-Jul-09 10:42 150 22.2
2020-Jul-09 10:37 150 21.7
2020-Jul-09 10:32 150 21.7
2020-Jul-09 10:27 150 21.7
2020-Jul-09 10:22 150 21.7
2020-Jul-09 10:16 150 21.7
2020-Jul-09 10:11 150 21.7
2020-Jul-09 10:06 150 21.7
2020-Jul-09 10:01 150 21.7
2020-Jul-09 09:56 150 21.7
2020-Jul-09 09:51 150 21.7
2020-Jul-09 09:46 150 21.7
2020-Jul-09 09:41 150 21.7
2020-Jul-09 09:36 150 21.7
2020-Jul-09 09:31 150 21.7
2020-Jul-09 09:26 150 21.7
2020-Jul-09 09:21 150 21.7
2020-Jul-09 09:16 150 21.7
2020-Jul-09 09:11 150 21.7
2020-Jul-09 09:06 150 21.7
2020-Jul-09 09:01 150 21.7
2020-Jul-09 08:56 150 21.7
2020-Jul-09 08:51 150 21.7
2020-Jul-09 08:46 150 21.7
2020-Jul-09 08:41 150 21.7
2020-Jul-09 08:36 150 21.7
2020-Jul-09 08:31 150 21.7
2020-Jul-09 08:26 150 21.7
2020-Jul-09 08:21 150 21.7
2020-Jul-09 08:16 150 21.1
2020-Jul-09 08:11 080 21.1
2020-Jul-09 08:06 080 21.1
2020-Jul-09 08:01 080 21.1
2020-Jul-09 07:56 080 21.1
2020-Jul-09 07:51 080 21.1
2020-Jul-09 07:46 080 21.1
2020-Jul-09 07:41 080 21.1
2020-Jul-09 07:36 080 21.1
2020-Jul-09 07:31 080 21.1
2020-Jul-09 07:26 080 21.1
2020-Jul-09 07:21 080 21.1
2020-Jul-09 07:16 080 21.1
2020-Jul-09 07:11 080 21.1
2020-Jul-09 07:06 080 21.1
2020-Jul-09 07:01 080 21.1
2020-Jul-09 06:56 080 21.1
2020-Jul-09 06:51 080 21.1
2020-Jul-09 06:46 080 21.1
2020-Jul-09 06:41 080 21.7
2020-Jul-09 06:36 080 21.7
2020-Jul-09 06:31 080 21.7
2020-Jul-09 06:26 080 21.7
2020-Jul-09 06:21 080 21.7
2020-Jul-09 06:15 080 21.7
2020-Jul-09 06:10 080 21.7
2020-Jul-09 06:05 080 21.7
2020-Jul-09 06:00 080 21.7
2020-Jul-09 05:55 080 21.7
2020-Jul-09 05:50 080 21.7
2020-Jul-09 05:45 080 21.7
2020-Jul-09 05:40 080 21.7
2020-Jul-09 05:35 080 21.7
2020-Jul-09 05:30 080 21.7
2020-Jul-09 05:25 080 22.2
2020-Jul-09 05:20 080 22.2
2020-Jul-09 05:15 080 22.2
2020-Jul-09 05:10 080 22.2
2020-Jul-09 05:05 080 22.2
2020-Jul-09 05:00 080 22.2
2020-Jul-09 04:55 080 22.2
2020-Jul-09 04:50 080 22.2
2020-Jul-09 04:45 080 22.2
2020-Jul-09 04:40 080 22.2
2020-Jul-09 04:35 080 22.2
2020-Jul-09 04:30 080 22.8
2020-Jul-09 04:25 080 22.8
2020-Jul-09 04:20 080 22.8
2020-Jul-09 04:15 080 22.8
2020-Jul-09 04:10 080 22.8
2020-Jul-09 04:05 080 22.8
2020-Jul-09 04:00 080 22.8
2020-Jul-09 03:55 080 22.8
2020-Jul-09 03:50 080 22.8
2020-Jul-09 03:45 080 22.8
2020-Jul-09 03:40 014 22.8
2020-Jul-09 03:35 014 22.8
2020-Jul-09 03:30 014 22.8
2020-Jul-09 03:24 014 22.8
2020-Jul-09 03:19 014 22.8
2020-Jul-09 03:14 011 22.8
2020-Jul-09 03:09 011 22.8
2020-Jul-09 03:04 011 22.8
2020-Jul-09 02:59 357 23.3
2020-Jul-09 02:54 126 23.3
2020-Jul-09 02:49 126 23.3
2020-Jul-09 02:44 126 23.3
2020-Jul-09 02:39 126 23.3
2020-Jul-09 02:34 126 23.3
2020-Jul-09 02:29 126 23.3
2020-Jul-09 02:24 126 23.3
2020-Jul-09 02:19 126 23.3
2020-Jul-09 02:14 126 23.3
2020-Jul-09 02:09 126 23.3
2020-Jul-09 02:04 126 23.9
2020-Jul-09 01:59 126 23.9
2020-Jul-09 01:54 126 23.9
2020-Jul-09 01:49 126 23.9
2020-Jul-09 01:44 126 23.9
2020-Jul-09 01:39 126 23.9
2020-Jul-09 01:34 126 24.4
2020-Jul-09 01:29 126 24.4
2020-Jul-09 01:24 126 24.4
2020-Jul-09 01:19 126 24.4
2020-Jul-09 01:14 126 24.4
2020-Jul-09 01:09 126 24.4
2020-Jul-09 01:04 132 24.4
2020-Jul-09 00:59 132 24.4
2020-Jul-09 00:54 135 24.4
2020-Jul-09 00:49 135 25.0
2020-Jul-09 00:44 135 25.0
2020-Jul-09 00:39 135 25.0
2020-Jul-09 00:34 217 25.0
2020-Jul-09 00:29 217 25.0
2020-Jul-09 00:24 217 25.0
2020-Jul-09 00:19 217 0 gusting 3 25.0
2020-Jul-09 00:14 003 25.0
2020-Jul-09 00:09 018 25.6
2020-Jul-09 00:04 010 25.6
2020-Jul-08 23:59 010 25.6
2020-Jul-08 23:54 010 25.6
2020-Jul-08 23:49 010 25.6
2020-Jul-08 23:44 010 26.1
2020-Jul-08 23:39 010 26.1
2020-Jul-08 23:34 010 26.1
2020-Jul-08 23:29 108 26.1
2020-Jul-08 23:24 043 26.1
2020-Jul-08 23:19 043 26.1
2020-Jul-08 23:14 043 26.7
2020-Jul-08 23:09 043 0 gusting 2 26.7
2020-Jul-08 23:04 122 26.7
2020-Jul-08 22:59 296 26.7
2020-Jul-08 22:54 296 27.2
2020-Jul-08 22:49 296 27.2
2020-Jul-08 22:44 296 27.2
2020-Jul-08 22:38 296 27.8
2020-Jul-08 22:33 299 27.8
2020-Jul-08 22:28 010 27.8
2020-Jul-08 22:23 078 0 gusting 2 27.8
2020-Jul-08 22:18 032 0 gusting 2 27.8
2020-Jul-08 22:13 077 27.8
2020-Jul-08 22:08 338 0 gusting 5 28.3
2020-Jul-08 22:03 338 0 gusting 6 28.3
2020-Jul-08 21:58 345 28.3
2020-Jul-08 21:53 162 28.3
2020-Jul-08 21:48 337 0 gusting 4 28.9
2020-Jul-08 21:43 018 0 gusting 3 28.9
2020-Jul-08 21:38 090 0 gusting 4 28.9
2020-Jul-08 21:33 062 0 gusting 4 29.4
2020-Jul-08 21:28 329 0 gusting 6 29.4
2020-Jul-08 21:23 045 0 gusting 6 29.4
2020-Jul-08 21:18 018 0 gusting 6 29.4
2020-Jul-08 21:13 132 0 gusting 6 29.4
2020-Jul-08 21:08 354 0 gusting 6 29.4
2020-Jul-08 21:03 148 0 gusting 4 29.4
2020-Jul-08 20:58 336 0 gusting 6 29.4
2020-Jul-08 20:53 133 0 gusting 6 29.4
2020-Jul-08 20:48 349 0 gusting 4 29.4
2020-Jul-08 20:43 080 0 gusting 5 29.4
2020-Jul-08 20:38 084 0 gusting 5 30.0
2020-Jul-08 20:33 037 0 gusting 5 30.0
2020-Jul-08 20:28 037 0 gusting 5 30.0
2020-Jul-08 20:23 334 0 gusting 5 30.0
2020-Jul-08 20:18 344 0 gusting 5 30.6
2020-Jul-08 20:13 118 30.6
2020-Jul-08 20:08 332 0 gusting 2 30.6
2020-Jul-08 20:03 109 0 gusting 5 30.6
2020-Jul-08 19:58 351 0 gusting 5 30.6
2020-Jul-08 19:53 347 0 gusting 5 31.1
2020-Jul-08 19:48 336 0 gusting 5 31.1
2020-Jul-08 19:43 116 31.1
2020-Jul-08 19:38 002 31.7
2020-Jul-08 19:33 132 31.7
2020-Jul-08 19:28 075 0 gusting 5 31.1
2020-Jul-08 19:23 350 0 gusting 5 31.1
2020-Jul-08 19:18 134 0 gusting 4 31.1
2020-Jul-08 19:13 112 0 gusting 4 31.1
2020-Jul-08 19:08 005 0 gusting 3 31.1
2020-Jul-08 19:03 066 0 gusting 4 31.1